Time,TemperatureF,DewpointF,PressureIn,WindDirection,WindDirectionDegrees,WindSpeedMPH,WindSpeedGustMPH,Humidity,HourlyPrecipIn,Conditions,Clouds,dailyrainin,SoftwareType,DateUTC
2013-08-23 00:05:00,71.3,66.9,30.00,ENE,67,1.0,3.0,86,0.00,,,0.00,Wunderground v.1.15,2013-08-23 05:05:00,
2013-08-23 00:15:00,71.2,67.1,30.00,ENE,67,2.0,2.0,87,0.00,,,0.00,Wunderground v.1.15,2013-08-23 05:15:00,
2013-08-23 00:25:00,71.1,67.0,30.00,ENE,70,2.0,4.0,87,0.00,,,0.00,Wunderground v.1.15,2013-08-23 05:25:00,
2013-08-23 00:30:00,71.1,67.0,30.00,ENE,71,3.0,3.0,87,0.00,,,0.00,Wunderground v.1.15,2013-08-23 05:30:00,
2013-08-23 00:40:00,71.0,66.9,30.00,ENE,74,3.0,5.0,87,0.00,,,0.00,Wunderground v.1.15,2013-08-23 05:40:00,
2013-08-23 00:50:00,71.1,67.0,30.00,ENE,78,3.0,4.0,87,0.00,,,0.00,Wunderground v.1.15,2013-08-23 05:50:00,
2013-08-23 00:55:00,71.2,67.1,30.00,East,86,4.0,5.0,87,0.00,,,0.00,Wunderground v.1.15,2013-08-23 05:55:00,
2013-08-23 01:05:00,71.3,67.2,30.00,East,93,4.0,4.0,87,0.00,,,0.00,Wunderground v.1.15,2013-08-23 06:05:00,
2013-08-23 01:14:00,71.3,66.9,30.00,East,94,3.0,3.0,86,0.00,,,0.00,Wunderground v.1.15,2013-08-23 06:14:00,
2013-08-23 01:20:00,71.3,66.9,30.00,East,94,3.0,3.0,86,0.00,,,0.00,Wunderground v.1.15,2013-08-23 06:20:00,
2013-08-23 01:25:00,71.2,66.8,30.00,East,94,2.0,3.0,86,0.00,,,0.00,Wunderground v.1.15,2013-08-23 06:25:00,
2013-08-23 01:35:00,71.1,67.0,30.00,East,94,2.0,3.0,87,0.00,,,0.00,Wunderground v.1.15,2013-08-23 06:35:00,
2013-08-23 01:40:00,71.0,66.9,30.00,East,94,2.0,3.0,87,0.00,,,0.00,Wunderground v.1.15,2013-08-23 06:40:00,
2013-08-23 01:50:00,71.0,66.9,30.00,East,94,3.0,3.0,87,0.00,,,0.00,Wunderground v.1.15,2013-08-23 06:50:00,
2013-08-23 02:00:00,70.9,66.8,30.00,East,94,3.0,3.0,87,0.00,,,0.00,Wunderground v.1.15,2013-08-23 07:00:00,
2013-08-23 02:05:00,70.8,66.7,30.00,East,94,3.0,3.0,87,0.00,,,0.00,Wunderground v.1.15,2013-08-23 07:05:00,
2013-08-23 02:14:00,70.6,66.9,30.00,East,94,3.0,3.0,88,0.00,,,0.00,Wunderground v.1.15,2013-08-23 07:14:00,
2013-08-23 02:20:00,70.6,66.9,30.00,East,94,2.0,2.0,88,0.00,,,0.00,Wunderground v.1.15,2013-08-23 07:20:00,
2013-08-23 02:25:00,70.5,66.8,30.00,East,94,2.0,2.0,88,0.00,,,0.00,Wunderground v.1.15,2013-08-23 07:25:00,
2013-08-23 02:35:00,70.6,66.9,30.00,East,94,1.0,3.0,88,0.00,,,0.00,Wunderground v.1.15,2013-08-23 07:35:00,
2013-08-23 02:40:00,70.6,66.9,30.00,East,94,2.0,3.0,88,0.00,,,0.00,Wunderground v.1.15,2013-08-23 07:40:00,
2013-08-23 02:50:00,70.6,67.2,30.00,East,94,3.0,3.0,89,0.00,,,0.00,Wunderground v.1.15,2013-08-23 07:50:00,
2013-08-23 03:00:00,70.5,67.1,30.00,East,94,3.0,3.0,89,0.00,,,0.00,Wunderground v.1.15,2013-08-23 08:00:00,
2013-08-23 03:05:00,70.5,67.1,30.00,East,94,2.0,3.0,89,0.00,,,0.00,Wunderground v.1.15,2013-08-23 08:05:00,
2013-08-23 03:15:00,70.5,67.1,30.00,East,94,2.0,2.0,89,0.00,,,0.00,Wunderground v.1.15,2013-08-23 08:15:00,
2013-08-23 03:25:00,70.4,67.0,30.00,East,94,1.0,2.0,89,0.00,,,0.00,Wunderground v.1.15,2013-08-23 08:25:00,
2013-08-23 03:30:00,70.4,67.0,30.00,East,94,1.0,2.0,89,0.00,,,0.00,Wunderground v.1.15,2013-08-23 08:30:00,
2013-08-23 03:40:00,70.3,66.9,30.00,East,94,1.0,1.0,89,0.00,,,0.00,Wunderground v.1.15,2013-08-23 08:40:00,
2013-08-23 03:45:00,70.3,66.9,30.00,East,94,0.0,1.0,89,0.00,,,0.00,Wunderground v.1.15,2013-08-23 08:45:00,
2013-08-23 03:55:00,70.1,66.7,30.00,East,94,2.0,2.0,89,0.00,,,0.00,Wunderground v.1.15,2013-08-23 08:55:00,
2013-08-23 04:05:00,70.0,66.9,30.00,East,94,2.0,2.0,90,0.00,,,0.00,Wunderground v.1.15,2013-08-23 09:05:00,
2013-08-23 04:15:00,69.9,66.8,30.00,East,94,2.0,2.0,90,0.00,,,0.00,Wunderground v.1.15,2013-08-23 09:15:00,
2013-08-23 04:20:00,69.9,66.8,30.00,East,94,2.0,2.0,90,0.00,,,0.00,Wunderground v.1.15,2013-08-23 09:20:00,
2013-08-23 04:30:00,69.8,66.7,30.00,East,94,2.0,2.0,90,0.00,,,0.00,Wunderground v.1.15,2013-08-23 09:30:00,
2013-08-23 04:40:00,69.8,66.7,30.00,East,94,2.0,2.0,90,0.00,,,0.00,Wunderground v.1.15,2013-08-23 09:40:00,
2013-08-23 04:50:00,69.7,66.6,30.00,East,94,1.0,1.0,90,0.00,,,0.00,Wunderground v.1.15,2013-08-23 09:50:00,
2013-08-23 04:55:00,69.7,66.6,29.99,East,94,1.0,1.0,90,0.00,,,0.00,Wunderground v.1.15,2013-08-23 09:55:00,
2013-08-23 05:05:00,69.5,66.8,30.00,East,94,2.0,2.0,91,0.00,,,0.00,Wunderground v.1.15,2013-08-23 10:05:00,
2013-08-23 05:15:00,69.5,66.8,29.99,East,94,2.0,2.0,91,0.00,,,0.00,Wunderground v.1.15,2013-08-23 10:15:00,
2013-08-23 05:25:00,69.5,66.8,30.00,East,94,2.0,2.0,91,0.00,,,0.00,Wunderground v.1.15,2013-08-23 10:25:00,
2013-08-23 05:35:00,69.4,66.7,30.00,East,94,2.0,3.0,91,0.00,,,0.00,Wunderground v.1.15,2013-08-23 10:35:00,
2013-08-23 05:40:00,69.4,66.7,30.00,East,94,2.0,2.0,91,0.00,,,0.00,Wunderground v.1.15,2013-08-23 10:40:00,
2013-08-23 05:50:00,69.3,66.6,30.00,East,94,2.0,3.0,91,0.00,,,0.00,Wunderground v.1.15,2013-08-23 10:50:00,
2013-08-23 05:55:00,69.3,66.6,29.99,East,94,3.0,3.0,91,0.00,,,0.00,Wunderground v.1.15,2013-08-23 10:55:00,
2013-08-23 06:05:00,69.2,66.5,30.00,East,94,2.0,3.0,91,0.00,,,0.00,Wunderground v.1.15,2013-08-23 11:05:00,
2013-08-23 06:15:00,69.0,66.3,29.99,East,94,2.0,2.0,91,0.00,,,0.00,Wunderground v.1.15,2013-08-23 11:15:00,
2013-08-23 06:25:00,69.0,66.6,30.00,East,94,2.0,2.0,92,0.00,,,0.00,Wunderground v.1.15,2013-08-23 11:25:00,
2013-08-23 06:30:00,68.9,66.5,30.00,East,94,1.0,2.0,92,0.00,,,0.00,Wunderground v.1.15,2013-08-23 11:30:00,
2013-08-23 06:40:00,68.9,66.5,30.00,East,94,1.0,1.0,92,0.00,,,0.00,Wunderground v.1.15,2013-08-23 11:40:00,
2013-08-23 06:50:00,68.9,66.5,30.00,East,94,0.0,0.0,92,0.00,,,0.00,Wunderground v.1.15,2013-08-23 11:50:00,
2013-08-23 06:55:00,69.0,66.6,30.00,East,94,0.0,0.0,92,0.00,,,0.00,Wunderground v.1.15,2013-08-23 11:55:00,
2013-08-23 07:05:00,69.2,66.8,30.00,East,94,0.0,3.0,92,0.00,,,0.00,Wunderground v.1.15,2013-08-23 12:05:00,
2013-08-23 07:15:00,69.4,67.0,30.00,ESE,119,1.0,4.0,92,0.00,,,0.00,Wunderground v.1.15,2013-08-23 12:15:00,
2013-08-23 07:20:00,69.5,67.1,30.00,ESE,110,2.0,2.0,92,0.00,,,0.00,Wunderground v.1.15,2013-08-23 12:20:00,
2013-08-23 07:30:00,69.8,67.4,30.00,ESE,109,1.0,1.0,92,0.00,,,0.00,Wunderground v.1.15,2013-08-23 12:30:00,
2013-08-23 07:40:00,69.9,67.5,30.00,SE,132,1.0,5.0,92,0.00,,,0.00,Wunderground v.1.15,2013-08-23 12:40:00,
2013-08-23 07:50:00,70.2,67.4,30.01,ESE,121,2.0,2.0,91,0.00,,,0.00,Wunderground v.1.15,2013-08-23 12:50:00,
2013-08-23 08:00:00,70.6,67.8,30.01,East,81,1.0,1.0,91,0.00,,,0.00,Wunderground v.1.15,2013-08-23 13:00:00,
2013-08-23 08:05:00,70.7,67.9,30.00,SE,141,1.0,1.0,91,0.00,,,0.00,Wunderground v.1.15,2013-08-23 13:05:00,
2013-08-23 08:15:00,71.3,68.5,30.01,East,84,2.0,5.0,91,0.00,,,0.00,Wunderground v.1.15,2013-08-23 13:15:00,
2013-08-23 08:20:00,71.7,68.9,30.01,SSE,149,2.0,4.0,91,0.00,,,0.00,Wunderground v.1.15,2013-08-23 13:20:00,
2013-08-23 08:30:00,72.2,68.8,30.01,SE,128,3.0,7.0,89,0.00,,,0.00,Wunderground v.1.15,2013-08-23 13:30:00,
2013-08-23 08:40:00,72.6,69.2,30.02,SE,138,4.0,4.0,89,0.00,,,0.00,Wunderground v.1.15,2013-08-23 13:40:00,
2013-08-23 08:45:00,73.1,69.3,30.02,SE,139,2.0,4.0,88,0.00,,,0.00,Wunderground v.1.15,2013-08-23 13:45:00,
2013-08-23 08:50:00,73.9,70.1,30.02,SSE,147,2.0,6.0,88,0.00,,,0.00,Wunderground v.1.15,2013-08-23 13:50:00,
2013-08-23 09:00:00,74.2,69.7,30.02,SE,137,4.0,4.0,86,0.00,,,0.00,Wunderground v.1.15,2013-08-23 14:00:00,
2013-08-23 09:05:00,74.2,69.7,30.02,SE,136,4.0,4.0,86,0.00,,,0.00,Wunderground v.1.15,2013-08-23 14:05:00,
2013-08-23 09:15:00,74.4,69.6,30.02,SE,136,2.0,3.0,85,0.00,,,0.00,Wunderground v.1.15,2013-08-23 14:15:00,
2013-08-23 09:20:00,74.6,70.1,30.01,SE,136,1.0,3.0,86,0.00,,,0.00,Wunderground v.1.15,2013-08-23 14:20:00,
2013-08-23 09:25:00,75.1,70.3,30.01,SE,136,1.0,3.0,85,0.00,,,0.00,Wunderground v.1.15,2013-08-23 14:25:00,
2013-08-23 09:30:00,75.8,70.6,30.01,SE,136,3.0,3.0,84,0.00,,,0.00,Wunderground v.1.15,2013-08-23 14:30:00,
2013-08-23 09:40:00,77.7,71.8,30.01,SSE,148,4.0,4.0,82,0.00,,,0.00,Wunderground v.1.15,2013-08-23 14:40:00,
2013-08-23 09:50:00,78.2,72.3,30.01,SSE,152,4.0,4.0,82,0.00,,,0.00,Wunderground v.1.15,2013-08-23 14:50:00,
2013-08-23 10:00:00,77.8,71.5,30.01,SE,130,4.0,4.0,81,0.00,,,0.00,Wunderground v.1.15,2013-08-23 15:00:00,
2013-08-23 10:05:00,77.7,71.4,30.01,SE,130,3.0,4.0,81,0.00,,,0.00,Wunderground v.1.15,2013-08-23 15:05:00,
2013-08-23 10:15:00,78.3,72.3,30.01,SE,134,2.0,2.0,82,0.00,,,0.00,Wunderground v.1.15,2013-08-23 15:15:00,
2013-08-23 10:20:00,78.2,71.5,30.01,SE,143,2.0,2.0,80,0.00,,,0.00,Wunderground v.1.15,2013-08-23 15:20:00,
2013-08-23 10:30:00,79.8,72.7,30.00,SE,140,3.0,3.0,79,0.00,,,0.00,Wunderground v.1.15,2013-08-23 15:30:00,
2013-08-23 10:40:00,80.9,72.6,30.00,SE,138,5.0,5.0,76,0.00,,,0.00,Wunderground v.1.15,2013-08-23 15:40:00,
2013-08-23 10:45:00,81.5,72.8,30.00,South,171,6.0,6.0,75,0.00,,,0.00,Wunderground v.1.15,2013-08-23 15:45:00,
2013-08-23 10:50:00,81.1,72.4,30.00,SE,128,4.0,10.0,75,0.00,,,0.00,Wunderground v.1.15,2013-08-23 15:50:00,
2013-08-23 11:00:00,82.8,74.1,30.00,SE,140,5.0,5.0,75,0.00,,,0.00,Wunderground v.1.15,2013-08-23 16:00:00,
2013-08-23 11:05:00,83.1,73.9,30.00,SSE,147,5.0,5.0,74,0.00,,,0.00,Wunderground v.1.15,2013-08-23 16:05:00,
2013-08-23 11:15:00,83.5,73.5,30.00,SE,126,6.0,10.0,72,0.00,,,0.00,Wunderground v.1.15,2013-08-23 16:15:00,
2013-08-23 11:20:00,83.6,73.6,30.00,SE,131,6.0,6.0,72,0.00,,,0.00,Wunderground v.1.15,2013-08-23 16:20:00,
2013-08-23 11:25:00,83.8,74.2,30.00,SSE,156,4.0,6.0,73,0.00,,,0.00,Wunderground v.1.15,2013-08-23 16:25:00,
2013-08-23 11:35:00,84.1,73.7,30.00,SE,142,5.0,6.0,71,0.00,,,0.00,Wunderground v.1.15,2013-08-23 16:35:00,
2013-08-23 11:40:00,84.1,74.1,30.00,SSE,159,6.0,6.0,72,0.00,,,0.00,Wunderground v.1.15,2013-08-23 16:40:00,
2013-08-23 11:50:00,84.2,73.3,29.99,SSE,148,5.0,5.0,70,0.00,,,0.00,Wunderground v.1.15,2013-08-23 16:50:00,
2013-08-23 12:00:00,84.6,73.7,29.99,SSE,148,4.0,4.0,70,0.00,,,0.00,Wunderground v.1.15,2013-08-23 17:00:00,
2013-08-23 12:05:00,85.1,73.8,29.99,SSE,153,5.0,5.0,69,0.00,,,0.00,Wunderground v.1.15,2013-08-23 17:05:00,
2013-08-23 12:15:00,85.0,73.3,29.98,SSE,150,7.0,11.0,68,0.00,,,0.00,Wunderground v.1.15,2013-08-23 17:15:00,
2013-08-23 12:25:00,85.2,73.0,29.98,SSE,167,6.0,7.0,67,0.00,,,0.00,Wunderground v.1.15,2013-08-23 17:25:00,
2013-08-23 12:35:00,85.4,72.7,29.97,SE,144,7.0,10.0,66,0.00,,,0.00,Wunderground v.1.15,2013-08-23 17:35:00,
2013-08-23 12:40:00,85.4,73.2,29.97,SE,137,8.0,8.0,67,0.00,,,0.00,Wunderground v.1.15,2013-08-23 17:40:00,
2013-08-23 12:50:00,85.8,74.0,29.97,South,170,5.0,5.0,68,0.00,,,0.00,Wunderground v.1.15,2013-08-23 17:50:00,
2013-08-23 13:00:00,86.4,73.7,29.97,South,184,5.0,5.0,66,0.00,,,0.00,Wunderground v.1.15,2013-08-23 18:00:00,
2013-08-23 13:05:00,86.7,73.1,29.97,SE,133,6.0,10.0,64,0.00,,,0.00,Wunderground v.1.15,2013-08-23 18:05:00,
2013-08-23 13:15:00,86.4,73.7,29.96,SSE,161,6.0,13.0,66,0.00,,,0.00,Wunderground v.1.15,2013-08-23 18:15:00,
2013-08-23 13:25:00,86.8,74.1,29.96,SSE,150,7.0,7.0,66,0.00,,,0.00,Wunderground v.1.15,2013-08-23 18:25:00,
2013-08-23 13:30:00,86.7,72.6,29.97,East,91,6.0,6.0,63,0.00,,,0.00,Wunderground v.1.15,2013-08-23 18:30:00,
2013-08-23 13:40:00,86.3,73.1,29.96,SE,141,7.0,7.0,65,0.00,,,0.00,Wunderground v.1.15,2013-08-23 18:40:00,
2013-08-23 13:50:00,86.9,72.3,29.95,SE,132,8.0,10.0,62,0.00,,,0.00,Wunderground v.1.15,2013-08-23 18:50:00,
2013-08-23 13:55:00,87.0,73.3,29.95,SE,136,7.0,10.0,64,0.00,,,0.00,Wunderground v.1.15,2013-08-23 18:55:00,
2013-08-23 14:05:00,87.1,72.0,29.95,SSE,159,7.0,8.0,61,0.00,,,0.00,Wunderground v.1.15,2013-08-23 19:05:00,
2013-08-23 14:15:00,87.9,69.7,29.95,SE,128,7.0,7.0,55,0.00,,,0.00,Wunderground v.1.15,2013-08-23 19:15:00,
2013-08-23 14:25:00,87.8,70.1,29.95,ESE,121,8.0,9.0,56,0.00,,,0.00,Wunderground v.1.15,2013-08-23 19:25:00,
2013-08-23 14:30:00,87.7,69.0,29.95,SE,135,8.0,12.0,54,0.00,,,0.00,Wunderground v.1.15,2013-08-23 19:30:00,
2013-08-23 14:40:00,88.1,69.9,29.95,SSE,148,8.0,8.0,55,0.00,,,0.00,Wunderground v.1.15,2013-08-23 19:40:00,
2013-08-23 14:45:00,88.5,70.3,29.95,SSE,150,8.0,8.0,55,0.00,,,0.00,Wunderground v.1.15,2013-08-23 19:45:00,
2013-08-23 14:55:00,88.2,69.5,29.95,SSE,147,9.0,17.0,54,0.00,,,0.00,Wunderground v.1.15,2013-08-23 19:55:00,
2013-08-23 15:00:00,88.1,70.9,29.94,SE,144,9.0,9.0,57,0.00,,,0.00,Wunderground v.1.15,2013-08-23 20:00:00,
2013-08-23 15:05:00,87.9,69.7,29.94,ESE,119,9.0,9.0,55,0.00,,,0.00,Wunderground v.1.15,2013-08-23 20:05:00,
2013-08-23 15:15:00,88.1,69.9,29.95,SE,142,10.0,10.0,55,0.00,,,0.00,Wunderground v.1.15,2013-08-23 20:15:00,
2013-08-23 15:20:00,87.8,70.7,29.94,SSE,148,10.0,10.0,57,0.00,,,0.00,Wunderground v.1.15,2013-08-23 20:20:00,
2013-08-23 15:30:00,87.8,69.6,29.94,SE,142,7.0,8.0,55,0.00,,,0.00,Wunderground v.1.15,2013-08-23 20:30:00,
2013-08-23 15:35:00,87.7,70.6,29.94,South,170,7.0,8.0,57,0.00,,,0.00,Wunderground v.1.15,2013-08-23 20:35:00,
2013-08-23 15:45:00,87.9,69.7,29.94,SSE,155,7.0,10.0,55,0.00,,,0.00,Wunderground v.1.15,2013-08-23 20:45:00,
2013-08-23 15:55:00,87.7,70.1,29.94,ESE,110,7.0,9.0,56,0.00,,,0.00,Wunderground v.1.15,2013-08-23 20:55:00,
2013-08-23 16:05:00,87.9,71.3,29.94,SE,132,8.0,13.0,58,0.00,,,0.00,Wunderground v.1.15,2013-08-23 21:05:00,
2013-08-23 16:15:00,87.9,70.8,29.94,SSE,164,9.0,10.0,57,0.00,,,0.00,Wunderground v.1.15,2013-08-23 21:15:00,
2013-08-23 16:25:00,87.5,70.9,29.94,ESE,115,9.0,10.0,58,0.00,,,0.00,Wunderground v.1.15,2013-08-23 21:25:00,
2013-08-23 16:30:00,87.1,70.5,29.94,SE,138,10.0,10.0,58,0.00,,,0.00,Wunderground v.1.15,2013-08-23 21:30:00,
2013-08-23 16:40:00,87.5,71.4,29.94,SE,139,8.0,15.0,59,0.00,,,0.00,Wunderground v.1.15,2013-08-23 21:40:00,
2013-08-23 16:50:00,87.1,70.5,29.93,SSW,213,10.0,10.0,58,0.00,,,0.00,Wunderground v.1.15,2013-08-23 21:50:00,
2013-08-23 16:55:00,87.2,71.6,29.93,SE,132,8.0,10.0,60,0.00,,,0.00,Wunderground v.1.15,2013-08-23 21:55:00,
2013-08-23 17:05:00,87.1,71.5,29.93,SE,134,8.0,13.0,60,0.00,,,0.00,Wunderground v.1.15,2013-08-23 22:05:00,
2013-08-23 17:15:00,87.4,71.3,29.93,SE,142,7.0,9.0,59,0.00,,,0.00,Wunderground v.1.15,2013-08-23 22:15:00,
2013-08-23 17:20:00,87.5,71.9,29.93,SE,129,7.0,7.0,60,0.00,,,0.00,Wunderground v.1.15,2013-08-23 22:20:00,
2013-08-23 17:30:00,87.0,70.4,29.93,South,176,8.0,8.0,58,0.00,,,0.00,Wunderground v.1.15,2013-08-23 22:30:00,
2013-08-23 17:35:00,87.1,70.5,29.93,SSE,148,9.0,9.0,58,0.00,,,0.00,Wunderground v.1.15,2013-08-23 22:35:00,
2013-08-23 17:45:00,86.9,70.3,29.93,SE,142,7.0,7.0,58,0.00,,,0.00,Wunderground v.1.15,2013-08-23 22:45:00,
2013-08-23 17:55:00,86.3,69.8,29.93,SSW,198,8.0,8.0,58,0.00,,,0.00,Wunderground v.1.15,2013-08-23 22:55:00,
2013-08-23 18:00:00,85.9,69.9,29.93,SE,125,8.0,9.0,59,0.00,,,0.00,Wunderground v.1.15,2013-08-23 23:00:00,
2013-08-23 18:05:00,85.6,69.6,29.93,SSE,156,8.0,9.0,59,0.00,,,0.00,Wunderground v.1.15,2013-08-23 23:05:00,
2013-08-23 18:15:00,85.0,69.6,29.92,SE,138,8.0,8.0,60,0.00,,,0.00,Wunderground v.1.15,2013-08-23 23:15:00,
2013-08-23 18:25:00,84.8,70.3,29.92,South,174,7.0,9.0,62,0.00,,,0.00,Wunderground v.1.15,2013-08-23 23:25:00,
2013-08-23 18:30:00,84.6,70.1,29.92,SE,145,7.0,7.0,62,0.00,,,0.00,Wunderground v.1.15,2013-08-23 23:30:00,
2013-08-23 18:40:00,84.3,70.3,29.92,SSW,192,7.0,9.0,63,0.00,,,0.00,Wunderground v.1.15,2013-08-23 23:40:00,
2013-08-23 18:50:00,83.9,70.4,29.92,SE,130,8.0,10.0,64,0.00,,,0.00,Wunderground v.1.15,2013-08-23 23:50:00,
2013-08-23 19:00:00,83.8,70.3,29.92,SE,134,7.0,7.0,64,0.00,,,0.00,Wunderground v.1.15,2013-08-24 00:00:00,
2013-08-23 19:05:00,83.8,70.3,29.92,SSE,149,7.0,7.0,64,0.00,,,0.00,Wunderground v.1.15,2013-08-24 00:05:00,
2013-08-23 19:15:00,83.7,70.2,29.91,SSE,148,6.0,8.0,64,0.00,,,0.00,Wunderground v.1.15,2013-08-24 00:15:00,
2013-08-23 19:25:00,83.5,70.5,29.92,SE,131,5.0,6.0,65,0.00,,,0.00,Wunderground v.1.15,2013-08-24 00:25:00,
2013-08-23 19:35:00,83.1,70.1,29.91,SE,130,5.0,9.0,65,0.00,,,0.00,Wunderground v.1.15,2013-08-24 00:35:00,
2013-08-23 19:40:00,82.9,69.9,29.91,SSE,148,6.0,6.0,65,0.00,,,0.00,Wunderground v.1.15,2013-08-24 00:40:00,
2013-08-23 19:50:00,82.6,69.6,29.91,SE,132,6.0,6.0,65,0.00,,,0.00,Wunderground v.1.15,2013-08-24 00:50:00,
2013-08-23 20:00:00,82.3,69.8,29.91,ESE,121,5.0,5.0,66,0.00,,,0.00,Wunderground v.1.15,2013-08-24 01:00:00,
2013-08-23 20:05:00,82.1,69.6,29.91,SE,141,6.0,6.0,66,0.00,,,0.00,Wunderground v.1.15,2013-08-24 01:05:00,
2013-08-23 20:15:00,81.9,69.9,29.91,East,85,5.0,5.0,67,0.00,,,0.00,Wunderground v.1.15,2013-08-24 01:15:00,
2013-08-23 20:25:00,81.6,70.0,29.91,SE,126,5.0,5.0,68,0.00,,,0.00,Wunderground v.1.15,2013-08-24 01:25:00,
2013-08-23 20:35:00,81.2,69.6,29.91,SSE,149,4.0,7.0,68,0.00,,,0.00,Wunderground v.1.15,2013-08-24 01:35:00,
2013-08-23 20:40:00,81.1,70.0,29.91,SE,137,5.0,5.0,69,0.00,,,0.00,Wunderground v.1.15,2013-08-24 01:40:00,
2013-08-23 20:50:00,80.9,70.2,29.91,SE,140,5.0,7.0,70,0.00,,,0.00,Wunderground v.1.15,2013-08-24 01:50:00,
2013-08-23 21:00:00,80.6,70.3,29.91,SE,132,6.0,6.0,71,0.00,,,0.00,Wunderground v.1.15,2013-08-24 02:00:00,
2013-08-23 21:05:00,80.5,70.2,29.92,SE,136,5.0,6.0,71,0.00,,,0.00,Wunderground v.1.15,2013-08-24 02:05:00,
2013-08-23 21:15:00,80.2,70.4,29.92,ESE,121,7.0,7.0,72,0.00,,,0.00,Wunderground v.1.15,2013-08-24 02:15:00,
2013-08-23 21:25:00,80.0,70.6,29.92,SSE,157,7.0,7.0,73,0.00,,,0.00,Wunderground v.1.15,2013-08-24 02:25:00,
2013-08-23 21:30:00,79.9,70.5,29.92,SE,137,6.0,6.0,73,0.00,,,0.00,Wunderground v.1.15,2013-08-24 02:30:00,
2013-08-23 21:40:00,79.6,70.6,29.92,SE,134,7.0,7.0,74,0.00,,,0.00,Wunderground v.1.15,2013-08-24 02:40:00,
2013-08-23 21:50:00,79.4,70.8,29.92,SE,126,6.0,6.0,75,0.00,,,0.00,Wunderground v.1.15,2013-08-24 02:50:00,
2013-08-23 21:55:00,79.3,70.7,29.92,SE,144,6.0,6.0,75,0.00,,,0.00,Wunderground v.1.15,2013-08-24 02:55:00,
2013-08-23 22:05:00,78.9,70.7,29.92,SE,145,5.0,6.0,76,0.00,,,0.00,Wunderground v.1.15,2013-08-24 03:05:00,
2013-08-23 22:15:00,78.7,70.5,29.93,SE,140,5.0,8.0,76,0.00,,,0.00,Wunderground v.1.15,2013-08-24 03:15:00,
2013-08-23 22:25:00,78.4,70.6,29.93,SE,144,4.0,5.0,77,0.00,,,0.00,Wunderground v.1.15,2013-08-24 03:25:00,
2013-08-23 22:30:00,78.2,70.4,29.93,SE,141,4.0,8.0,77,0.00,,,0.00,Wunderground v.1.15,2013-08-24 03:30:00,
2013-08-23 22:40:00,77.9,70.1,29.93,SSE,161,5.0,5.0,77,0.00,,,0.00,Wunderground v.1.15,2013-08-24 03:40:00,
2013-08-23 22:45:00,77.8,70.4,29.93,SE,139,5.0,6.0,78,0.00,,,0.00,Wunderground v.1.15,2013-08-24 03:45:00,
2013-08-23 22:55:00,77.6,70.2,29.93,SSE,156,4.0,6.0,78,0.00,,,0.00,Wunderground v.1.15,2013-08-24 03:55:00,
2013-08-23 23:05:00,77.3,69.9,29.93,SSE,151,4.0,6.0,78,0.00,,,0.00,Wunderground v.1.15,2013-08-24 04:05:00,
2013-08-23 23:10:00,77.2,69.8,29.93,SE,139,4.0,6.0,78,0.00,,,0.00,Wunderground v.1.15,2013-08-24 04:10:00,
2013-08-23 23:15:00,77.1,69.7,29.93,SE,140,5.0,6.0,78,0.00,,,0.00,Wunderground v.1.15,2013-08-24 04:15:00,
2013-08-23 23:20:00,77.2,69.8,29.93,SE,136,5.0,6.0,78,0.00,,,0.00,Wunderground v.1.15,2013-08-24 04:20:00,
2013-08-23 23:25:00,77.2,69.8,29.93,ESE,122,5.0,11.0,78,0.00,,,0.00,Wunderground v.1.15,2013-08-24 04:25:00,
2013-08-23 23:30:00,77.1,69.7,29.93,SE,139,6.0,6.0,78,0.00,,,0.00,Wunderground v.1.15,2013-08-24 04:30:00,
2013-08-23 23:35:00,77.0,69.6,29.93,SE,142,5.0,6.0,78,0.00,,,0.00,Wunderground v.1.15,2013-08-24 04:35:00,
2013-08-23 23:45:00,76.9,69.5,29.93,SE,139,4.0,4.0,78,0.00,,,0.00,Wunderground v.1.15,2013-08-24 04:45:00,
2013-08-23 23:55:00,76.8,69.4,29.94,SSE,149,4.0,8.0,78,0.00,,,0.00,Wunderground v.1.15,2013-08-24 04:55:00,